Flag for United Kingdom Weather past 2 weeks in Perth, Scotland, United Kingdom

Now
55 °F

Cool.


Feels Like: 52 °F
Forecast: 38 / 53 °F
Wind: 9 mph from Southwest

Location: Strathallan

Current Time: Oct 21, 2014 at 12:02:35 AM

Latest Report: Oct 20, 2014 at 11:00 PM


Visibility: 22 mi

Pressure: 29.41 "Hg

Humidity: 84%

Dew point: 50 °F

Location of PerthLocation

Historic Weather in Perth — Graph

°F

Perth temperature yesterday

Maximum temperature yesterday: 55 °F (at 1:00 PM)
Minimum temperature yesterday: 50 °F (at 3:00 AM)
Average temperature yesterday: 53 °F

Past Weeks' High & Low Weather Summary

 TemperatureHumidityPressure
High63 °F (Oct 17, 3:00 PM)99% (Oct 7, 1:00 AM)29.98 "Hg (Oct 7, 1:00 AM)
Low33 °F (Oct 14, 4:00 AM)60% (Oct 7, 3:00 PM)29.15 "Hg (Oct 8, 11:00 PM)
Average49 °F87%29.59 "Hg
* Reported Oct 5 10:00 PM — Oct 20 10:00 PM, Perth, Weather by CustomWeather, © 2014

Note: Actual official high and low records may vary slightly from our data, if they occured in-between our weather recording intervals... More about our weather records

Advertising

Perth weather history for previous 24 hours

 ConditionsComfort  
Time TempWeatherWind HumidityBarometerVisibility
10:00 PM
Oct 20
54 °FCool.9 mph84%29.47 "Hg28 mi
9:00 PM54 °FCool.10 mph83%29.50 "Hg25 mi
8:00 PM54 °FCool.10 mph79%29.57 "Hg19 mi
7:00 PM54 °FCool.10 mph79%29.60 "Hg19 mi
6:00 PM54 °FCool.10 mph81%29.62 "Hg28 mi
5:00 PM54 °FCool.13 mph83%29.65 "Hg19 mi
4:00 PM53 °FLight freezing rain. Cloudy.16 mph89%29.66 "Hg8 mi
3:00 PM54 °FCool.16 mph83%29.68 "Hg18 mi
2:00 PM54 °FCool.15 mph84%29.70 "Hg25 mi
1:00 PM55 °FCool.17 mph79%29.71 "Hg11 mi
12:00 PM54 °FCool.18 mph79%29.72 "Hg25 mi
11:00 AM53 °FCool.15 mph84%29.72 "Hg19 mi
10:00 AM53 °FCool.12 mph91%29.72 "Hg19 mi
9:00 AM51 °FCool.9 mph91%29.72 "Hg28 mi
7:00 AM51 °FRain showers. Overcast.10 mph91%29.70 "Hg14 mi
6:00 AM51 °FCool.13 mph88%29.70 "Hg17 mi
4:00 AM50 °FLight freezing rain. Overcast.9 mph90%29.70 "Hg7 mi
3:00 AM50 °FRain showers. Overcast.12 mph88%29.70 "Hg8 mi
2:00 AM50 °FCool.12 mph87%29.70 "Hg6 mi
1:00 AM50 °FCool.10 mph83%29.68 "Hg7 mi
12:00 AM51 °FCool.13 mph76%29.66 "Hg9 mi
Weather by CustomWeather, © 2014

See weather overviewHow to use our weather pages